GW5365 Weather Reports


time (UTC)temp
C
wind
direction
speed
KPH
gust
KPH
rain 1hr
cm
rain 24hr
cm
rain mn
cm
humidity
%
barometer
mb
20260505035642 11 90 0.0 0.0 0.00 0.00 0.00 72 1014.4
20260505034640 12 90 0.0 0.0 0.00 0.00 0.00 73 1014.4
20260505033640 12 90 0.0 0.0 0.00 0.00 0.00 73 1014.4
20260505032642 12 90 0.0 0.0 0.00 0.00 0.00 72 1014.4
20260505031640 12 112 0.0 0.0 0.00 0.00 0.00 70 1014.4
20260505030639 12 112 1.6 1.6 0.00 0.00 0.00 71 1014.4
20260505024640 12 112 3.2 3.2 0.00 0.00 0.00 69 1014.3
20260505023640 12 112 1.6 1.6 0.00 0.00 0.00 70 1014.4
20260505022640 12 112 1.6 1.6 0.00 0.00 0.00 71 1014.4
20260505021640 13 112 3.2 3.2 0.00 0.00 0.00 71 1014.4
20260505020639 13 112 0.0 0.0 0.00 0.00 0.00 69 1014.4
20260505015640 13 112 3.2 3.2 0.00 0.00 0.00 69 1014.5
20260505014640 13 112 0.0 0.0 0.00 0.00 0.00 68 1014.5
20260505013640 13 112 3.2 3.2 0.00 0.00 0.00 68 1014.6
20260505012641 13 112 3.2 3.2 0.00 0.00 0.00 67 1014.6
20260505011640 13 112 0.0 0.0 0.00 0.00 0.00 67 1014.6
20260505010640 13 112 6.4 6.4 0.00 0.00 0.00 67 1014.8
20260505005641 13 112 0.0 0.0 0.00 0.00 0.00 69 1014.9
20260505004641 14 90 6.4 6.4 0.00 0.00 0.00 67 1014.9
20260505003640 14 90 8.0 8.0 0.00 0.00 0.00 67 1015.0
20260505002640 14 90 3.2 3.2 0.00 0.00 0.00 67 1014.9
20260505000641 15 90 1.6 1.6 0.00 0.00 0.00 60 1015.0
20260504234639 15 158 3.2 3.2 0.00 0.00 0.00 62 1015.1
20260504233640 15 112 3.2 3.2 0.00 0.00 0.00 62 1015.2
20260504231640 15 158 3.2 3.2 0.00 0.00 0.00 61 1015.1
20260504230641 15 45 1.6 1.6 0.00 0.00 0.00 62 1015.0
20260504224640 16 270 9.7 9.7 0.00 0.00 0.00 61 1014.9
20260504222640 16 248 9.7 9.7 0.00 0.00 0.00 58 1014.8
20260504221641 16 292 20.9 20.9 0.00 0.00 0.00 57 1014.9
20260504220640 16 270 16.1 16.1 0.00 0.00 0.00 58 1014.9
20260504215641 16 270 16.1 16.1 0.00 0.00 0.00 55 1014.9
20260504214640 17 270 20.9 20.9 0.00 0.00 0.00 52 1014.8
20260504213641 17 248 27.4 27.4 0.00 0.00 0.00 48 1014.9
20260504212640 17 225 11.3 11.3 0.00 0.00 0.00 41 1014.9
20260504210641 18 248 12.9 12.9 0.00 0.00 0.00 40 1014.9
20260504205640 18 248 14.5 14.5 0.00 0.00 0.00 40 1014.9
20260504204641 18 292 12.9 12.9 0.00 0.00 0.00 41 1014.7
20260504203640 18 270 11.3 11.3 0.00 0.00 0.00 41 1014.6
20260504202640 18 248 12.9 12.9 0.00 0.00 0.00 40 1014.5
20260504201641 18 248 14.5 14.5 0.00 0.00 0.00 40 1014.4
20260504200641 18 248 16.1 16.1 0.00 0.00 0.00 41 1014.2
20260504195639 18 248 16.1 16.1 0.00 0.00 0.00 41 1014.1
20260504194640 18 248 9.7 9.7 0.00 0.00 0.00 42 1014.0
20260504193642 18 270 9.7 9.7 0.00 0.00 0.00 42 1014.0
20260504192641 18 270 11.3 11.3 0.00 0.00 0.00 42 1013.9
20260504190640 18 225 9.7 9.7 0.00 0.00 0.00 42 1013.7
20260504185639 19 270 11.3 11.3 0.00 0.00 0.00 41 1013.6
20260504184640 20 0 11.3 11.3 0.00 0.00 0.00 42 1013.7
20260504183641 20 248 9.7 9.7 0.00 0.00 0.00 41 1013.6
20260504182640 20 270 14.5 14.5 0.00 0.00 0.00 41 1013.5
20260504181640 20 315 17.7 17.7 0.00 0.00 0.00 41 1013.4
20260504175641 20 270 9.7 9.7 0.00 0.00 0.00 42 1013.4
20260504173641 21 270 16.1 16.1 0.00 0.00 0.00 38 1013.3
20260504171640 21 270 12.9 12.9 0.00 0.00 0.00 37 1013.4
20260504170641 21 248 9.7 9.7 0.00 0.00 0.00 38 1013.3
20260504150640 21 292 9.7 9.7 0.00 0.00 0.00 42 1013.4
20260504140641 20 270 17.7 17.7 0.00 0.00 0.00 45 1013.8
20260504130640 19 248 29.0 29.0 0.00 0.00 0.00 47 1014.0
20260504110640 17 270 14.5 14.5 0.00 0.00 0.00 55 1015.0
20260504080641 14 112 4.8 4.8 0.00 0.00 0.00 73 1015.1
20260504050641 12 112 8.0 8.0 0.00 0.00 0.00 79 1014.0
20260504045641 13 112 8.0 8.0 0.00 0.00 0.00 79 1013.9
20260504043641 13 270 1.6 1.6 0.00 0.00 0.00 76 1013.8
20260504042640 13 315 6.4 6.4 0.00 0.00 0.00 75 1013.8
20260504041640 13 270 8.0 8.0 0.00 0.00 0.00 74 1013.7
20260504040641 13 270 8.0 8.0 0.00 0.00 0.00 74 1013.7